Location: Ammerl�gen
(47.2167°N, 9.6000°E)
Time: 11:43:55
(UTC+00:00)

CZ-4 R/B DEB - Pass Details

Date: 21 October 2021
Orbit: 738 x 791 km, 98.5° (Epoch: 26 November)

Event Time Altitude Azimuth Distance (km) Brightness Sun altitude
Exits shadow 17:28:15 16° 83° (E) 1,861 ? -11.8°
Maximum altitude 17:29:51 19° 59° (ENE) 1,731 ? -12.0°
Drops below altitude 10° 17:33:13 10° 16° (NNE) 2,259 ? -12.6°
Sets 17:36:06 0° 359° (N) 3,190 ? -13.1°
